Location: Caoba
(9.7667°N, 67.4833°W)
Time: 19:26:59
(UTC+00:00)

GOES 2 Rocket - Pass Details

Date: 13 December 2024
Orbit: 569 x 1662 km, 28.4° (Epoch: 14 January)

Event Time Altitude Azimuth Distance (km) Brightness Sun altitude
Exits shadow 09:32:18 28° 284° (WNW) 1,059 3.7 -15.7°
Maximum altitude 09:34:20 67° 209° (SSW) 624 3.0 -15.2°
Drops below altitude 10° 09:38:48 10° 126° (SE) 2,000 7.0 -14.2°
Sets 09:41:20 0° 124° (ESE) 3,018 8.3 -13.6°
